Jackson, MS

2:07 AM CDT on April 24, 2017 (GMT -0500)
Jackson-Evers International

Weather History for KJAN - January, 2014

Change the Weather History Date:

Tuesday, January 21, 2014

  Actual Average Record
Temperature  
Mean Temperature 41 °F 46 °F  
Max Temperature 55 °F 56 °F 80 °F (1938)
Min Temperature 27 °F 35 °F 2 °F (1985)
Degree Days  
Heating Degree Days 24 19  
Month to date heating degree days 469 418  
Since 1 July heating degree days 1491 1368  
Cooling Degree Days 0 0  
Month to date cooling degree days 0 0  
Year to date cooling degree days 0 0  
Moisture  
Dew Point 23 °F    
Average Humidity 57    
Maximum Humidity 80    
Minimum Humidity 34    
Precipitation  
Precipitation 0.00 in 0.17 in 2.59 in (1998)
Month to date precipitation 1.54 3.23  
Year to date precipitation 1.54 3.23  
Sea Level Pressure  
Sea Level Pressure 30.14 in    
Wind  
Wind Speed 14 mph (NNW)    
Max Wind Speed 28 mph    
Max Gust Speed 40 mph    
Visibility 10 miles    
Events      
T = Trace of Precipitation, MM = Missing Value Source: NWS Daily Summary

Daily Weather History Graph

Daily Weather History Graph

Search for Another Location

Airport or City:

Trip Planner

Search our weather history database for the weather conditions in past years. The results will help you decide how hot, cold, wet, or windy it might be!

Date:

Astronomy

Jan. 21, 2014 Rise Set
Actual Time 7:00 AM CST 5:23 PM CST
Civil Twilight 6:33 AM CST 5:49 PM CST
Nautical Twilight 6:04 AM CST 6:19 PM CST
Astronomical Twilight 5:34 AM CST 6:48 PM CST
Moon 10:34 PM CST (1/21) 9:49 AM CST (1/21)
Length of Visible Light 11h 15m
Length of Day
10h 23m
Waning Gibbous, 74% of the Moon is Illuminated
Jan 21
Waning Gibbous
Jan 23
Last Quarter
Jan 30
New
Feb 6
First Quarter
Feb 14
Full

Hourly Weather History & Observations

Time (CST) Temp. Windchill Dew Point Humidity Pressure Visibility Wind Dir Wind Speed Gust Speed Precip Events Conditions
12:54 AM 48.9 °F - 41.0 °F 74% 29.91 in 10.0 mi SSW 4.6 mph - N/A   Clear
1:54 AM 48.9 °F - 42.1 °F 77% 29.93 in 10.0 mi Calm Calm - N/A   Clear
2:54 AM 53.1 °F - 37.0 °F 55% 29.96 in 10.0 mi NNW 10.4 mph - N/A   Clear
3:54 AM 50.0 °F - 30.0 °F 46% 29.99 in 10.0 mi NNW 15.0 mph 23.0 mph N/A   Clear
4:54 AM 48.9 °F - 28.9 °F 46% 30.02 in 10.0 mi NNW 12.7 mph - N/A   Clear
5:54 AM 46.9 °F - 28.9 °F 50% 30.06 in 10.0 mi NW 9.2 mph - N/A   Clear
6:54 AM 45.0 °F 41.8 °F 25.0 °F 46% 30.07 in 10.0 mi NW 5.8 mph - N/A   Clear
7:54 AM 46.9 °F - 23.0 °F 39% 30.08 in 10.0 mi NW 10.4 mph - N/A   Clear
8:54 AM 48.0 °F - 21.0 °F 34% 30.11 in 10.0 mi NNW 20.7 mph 28.8 mph N/A   Clear
9:54 AM 48.0 °F - 21.9 °F 36% 30.15 in 10.0 mi NNW 23.0 mph 32.2 mph N/A   Clear
10:54 AM 46.9 °F - 21.9 °F 37% 30.17 in 10.0 mi NNW 25.3 mph 39.1 mph N/A   Clear
11:54 AM 46.0 °F 37.8 °F 21.0 °F 37% 30.17 in 10.0 mi NNW 23.0 mph 29.9 mph N/A   Clear
12:54 PM 45.0 °F 36.4 °F 19.0 °F 36% 30.15 in 10.0 mi North 23.0 mph 31.1 mph N/A   Clear
1:54 PM 43.0 °F 33.8 °F 18.0 °F 37% 30.16 in 10.0 mi NNW 23.0 mph 31.1 mph N/A   Clear
2:54 PM 43.0 °F 34.5 °F 18.0 °F 37% 30.17 in 10.0 mi NNW 19.6 mph 29.9 mph N/A   Clear
3:54 PM 39.9 °F 32.1 °F 18.0 °F 41% 30.19 in 10.0 mi NW 13.8 mph 26.5 mph N/A   Clear
4:54 PM 37.0 °F 27.7 °F 18.0 °F 46% 30.21 in 10.0 mi NNW 16.1 mph - N/A   Clear
5:54 PM 34.0 °F 24.2 °F 17.1 °F 50% 30.23 in 10.0 mi NNW 15.0 mph - N/A   Clear
6:54 PM 32.0 °F 21.6 °F 17.1 °F 54% 30.24 in 10.0 mi North 15.0 mph - N/A   Clear
7:54 PM 30.0 °F 20.0 °F 17.1 °F 59% 30.24 in 10.0 mi North 12.7 mph 18.4 mph N/A   Clear
8:54 PM 28.9 °F 20.4 °F 16.0 °F 58% 30.24 in 10.0 mi NNW 9.2 mph - N/A   Clear
9:54 PM 28.0 °F 20.0 °F 16.0 °F 61% 30.24 in 10.0 mi North 8.1 mph - N/A   Clear
10:54 PM 28.0 °F 18.6 °F 16.0 °F 61% 30.25 in 10.0 mi North 10.4 mph - N/A   Clear
11:54 PM 27.0 °F 19.5 °F 15.1 °F 61% 30.24 in 10.0 mi North 6.9 mph - N/A   Clear